This demonstration page uses our WeatherBlox Daily Observations layout. Learn more.

Left ArrowRight Arrow

39.51506, -84.39828

Hourly Observations for March 31, 2021

Temp ( °F °C ) Dew Point ( °F °C ) Humidity (%) Winds ( mph kmh ) Pressure ( in mb ) Visibility ( mi km ) Precip ( " mm )
12:15 am 00:15 Cloudy with Light Rain 61 16.1 53 11.5 74 74 SW 14 22 29.95 1014 10 16 N/A
12:35 am 00:35 Cloudy with Light Rain 59 15.2 54 12.2 82 82 SW 12 19 29.95 1014 10 16 N/A
12:55 am 00:55 Cloudy 60 15.4 54 12.3 82 82 SW 13 20 29.95 1014 10 16 N/A
1:15 am 01:15 Cloudy 60 15.3 54 12.4 83 83 SW 15 24 29.95 1014 10 16 N/A
1:35 am 01:35 Cloudy with Rain 59 14.9 55 12.9 88 88 SW 10 17 29.95 1014 10 16 N/A
1:55 am 01:55 Cloudy with Light Rain 58 14.7 55 13 90 90 SW 10 17 29.95 1014 10 16 N/A
2:15 am 02:15 Cloudy 59 14.8 56 13.1 90 90 SW 10 17 29.93 1013 10 16 N/A
2:35 am 02:35 Cloudy 58 14.4 56 13.2 93 93 WSW 10 17 29.94 1014 10 16 N/A
2:55 am 02:55 Cloudy with Rain 57 13.9 57 13.8 99 99 SW 10 17 29.94 1014 4 6 0.08 2.03
3:15 am 03:15 Cloudy with Light Rain 57 14 N/A N/A WSW 9 15 29.93 1014 4 6 0.02 0.51
3:35 am 03:35 Cloudy with Light Rain 55 13 N/A N/A WSW 10 17 29.93 1014 5 8 0.02 0.51
3:55 am 03:55 Cloudy with Light Rain 57 14 N/A N/A SW 9 15 29.92 1013 5 8 0.02 0.51
4:15 am 04:15 Cloudy 55 13 N/A N/A SW 8 13 29.93 1014 7 11 N/A
4:35 am 04:35 Cloudy with Light Rain 55 13 N/A N/A WSW 8 13 29.93 1014 2 3 0.01 0.25
4:55 am 04:55 Cloudy 51 10.7 51 10.4 98 98 NNW 15 24 29.97 1015 10 16 0.02 0.51
5:15 am 05:15 Cloudy 49 9.6 48 9 96 96 NNW 14 22 29.99 1016 10 16 N/A
5:30 am 05:30 Cloudy 49 9.4 47 8.6 95 95 NNW 18 30 30.00 1016 10 16 N/A
5:55 am 05:55 Cloudy with Mist and Fog 48 8.7 47 8.1 96 96 NNW 14 22 30.02 1017 5 8 N/A
6:15 am 06:15 Cloudy 46 7.8 44 6.8 93 93 N 10 17 30.03 1017 10 16 N/A
6:35 am 06:35 Cloudy 46 8 43 6.1 88 88 N 9 15 30.04 1017 10 16 N/A
6:55 am 06:55 Cloudy 47 8.1 42 5.7 85 85 N 3 6 30.06 1018 10 16 N/A
7:15 am 07:15 Cloudy 47 8.1 42 5.6 84 84 N 5 7 30.06 1018 10 16 N/A
7:35 am 07:35 Cloudy 47 8.1 42 5.7 85 85 N 6 9 30.08 1019 10 16 N/A
7:55 am 07:55 Cloudy 46 8 43 6.3 89 89 NW 7 11 30.09 1019 10 16 N/A
8:15 am 08:15 Cloudy 46 7.7 40 4.3 79 79 NNW 12 19 30.10 1019 10 16 N/A
8:35 am 08:35 Cloudy 46 7.7 39 4.1 78 78 NNW 9 15 30.11 1020 10 16 N/A
8:55 am 08:55 Cloudy 45 7.4 38 3.2 75 75 NNW 9 15 30.13 1020 10 16 N/A
9:15 am 09:15 Cloudy 45 7.3 38 3.1 75 75 NW 14 22 30.14 1021 10 16 N/A
9:35 am 09:35 Cloudy 45 7.2 36 2 70 70 NW 10 17 30.15 1021 10 16 N/A
9:55 am 09:55 Cloudy 45 7.3 35 1.6 67 67 NNW 13 20 30.15 1021 10 16 N/A
10:15 am 10:15 Cloudy 45 7.2 33 0.8 64 64 NW 15 24 30.15 1021 10 16 N/A
10:35 am 10:35 Cloudy 45 7.2 32 undefined 61 61 NW 16 26 30.15 1021 10 16 N/A
10:55 am 10:55 Cloudy 45 7.3 32 -0.2 59 59 WNW 10 17 30.17 1022 10 16 N/A
11:15 am 11:15 Cloudy 45 7.4 31 -0.4 58 58 NW 8 13 30.17 1022 10 16 N/A
11:35 am 11:35 Sunny 46 7.5 32 -0.2 58 58 NW 9 15 30.18 1022 10 16 N/A
11:55 am 11:55 Sunny 46 8 30 -0.9 54 54 W 10 17 30.17 1022 10 16 N/A
12:15 pm 12:15 Sunny 47 8.1 30 -1.2 52 52 WNW 12 19 30.16 1021 10 16 N/A
12:35 pm 12:35 Sunny 48 8.7 27 -2.7 45 45 WNW 13 20 30.16 1021 10 16 N/A
12:55 pm 12:55 Sunny 49 9.7 29 -1.9 45 45 NW 14 22 30.17 1022 10 16 N/A
1:15 pm 13:15 Sunny 50 9.9 26 -3.2 40 40 W 14 22 30.15 1021 10 16 N/A
1:35 pm 13:35 Sunny 50 10 28 -2.3 42 42 WNW 16 26 30.15 1021 10 16 N/A
1:55 pm 13:55 Sunny 50 10.2 27 -2.9 40 40 WNW 10 17 30.14 1021 10 16 N/A
2:15 pm 14:15 Sunny 51 10.5 26 -3.2 38 38 WNW 16 26 30.14 1021 10 16 N/A
2:35 pm 14:35 Sunny 50 9.8 24 -4.2 37 37 WNW 14 22 30.15 1021 10 16 N/A
2:55 pm 14:55 Sunny 51 10.5 26 -3.6 37 37 WNW 12 19 30.15 1021 10 16 N/A
3:15 pm 15:15 Partly Cloudy 49 9.7 24 -4.2 38 38 NW 17 28 30.14 1021 10 16 N/A
3:35 pm 15:35 Cloudy 49 9.3 23 -4.9 37 37 NW 14 22 30.14 1021 10 16 N/A
3:55 pm 15:55 Partly Cloudy 47 8.6 21 -6 35 35 WNW 13 20 30.15 1021 10 16 N/A
4:15 pm 16:15 Partly Cloudy 48 9 20 -6.9 32 32 W 21 33 30.16 1021 10 16 N/A
4:35 pm 16:35 Mostly Cloudy 48 8.7 21 -5.9 35 35 NW 9 15 30.15 1021 10 16 N/A
4:55 pm 16:55 Partly Cloudy 48 8.8 24 -4.7 38 38 WNW 14 22 30.15 1021 10 16 N/A
5:15 pm 17:15 Partly Cloudy 48 9.1 24 -4.5 38 38 NW 16 26 30.16 1021 10 16 N/A
5:35 pm 17:35 Cloudy 47 8.5 24 -4.5 40 40 NNW 14 22 30.17 1022 10 16 N/A
5:55 pm 17:55 Sunny 47 8.5 23 -5 38 38 NW 17 28 30.18 1022 10 16 N/A
6:15 pm 18:15 Sunny 47 8.1 22 -5.3 39 39 WNW 16 26 30.18 1022 10 16 N/A
6:35 pm 18:35 Sunny 48 8.9 24 -4.7 38 38 NW 15 24 30.18 1022 10 16 N/A
6:55 pm 18:55 Sunny 47 8.2 23 -4.8 40 40 NW 13 20 30.18 1022 10 16 N/A
7:15 pm 19:15 Sunny 46 7.6 21 -6 38 38 NW 16 26 30.19 1022 10 16 N/A
7:35 pm 19:35 Sunny 46 7.5 22 -5.8 39 39 NW 13 20 30.19 1022 10 16 N/A
7:55 pm 19:55 Sunny 44 6.8 21 -5.9 40 40 NW 13 20 30.19 1022 10 16 N/A
8:15 pm 20:15 Clear 44 6.5 23 -5.1 44 44 NNW 12 19 30.20 1023 10 16 N/A
8:35 pm 20:35 Clear 43 6.3 21 -5.9 42 42 NW 10 17 30.21 1023 10 16 N/A
8:55 pm 20:55 Clear 42 5.7 21 -6 43 43 NNW 15 24 30.22 1023 10 16 N/A
9:15 pm 21:15 Clear 42 5.6 19 -7.2 40 40 NNW 14 22 30.24 1024 10 16 N/A
9:35 pm 21:35 Clear 41 5.1 18 -7.7 39 39 NNW 12 19 30.25 1024 10 16 N/A
9:55 pm 21:55 Clear 41 4.8 18 -7.6 41 41 NNW 9 15 30.26 1025 10 16 N/A
10:15 pm 22:15 Clear 40 4.5 18 -7.6 41 41 NNW 8 13 30.26 1025 10 16 N/A
10:35 pm 22:35 Clear 39 4.1 19 -7.3 44 44 NNW 8 13 30.27 1025 10 16 N/A
10:55 pm 22:55 Clear 39 3.8 19 -7.2 45 45 NNW 14 22 30.28 1025 10 16 N/A
11:15 pm 23:15 Clear 38 3.6 19 -7.3 45 45 NNW 10 17 30.29 1026 10 16 N/A
11:35 pm 23:35 Clear 38 3.4 19 -7.3 46 46 NNW 15 24 30.29 1026 10 16 N/A
11:55 pm 23:55 Clear 38 3.2 19 -7.3 46 46 NNW 13 20 30.29 1026 10 16 N/A

Powered by AerisWeather